Theta_e
335 335 339 339 336 335 329 327 311 310 307 302 304 305 304 313 313 313 314 316 317 322 324 324 324 323 317 317 316 321 320 315 319 309 316 333 343 338 341 340 345 347 351 353 355 357 358 357 356 355 354 355 354 354 354 354 354 354 354 354 354 354 354 354 354 354 354 354 354 354 354 354 353 354 353 353 352 350 349 349 349 349 349 349 349 349 349 349 349 350 350 350 349 350 350 350 350
326 337 338 337 332 329 320 320 308 305 304 302 304 306 308 311 312 311 312 315 320 322 325 326 326 323 323 323 322 321 318 327 330 326 339 342 342 338 342 345 346 348 353 354 356 356 356 357 355 355 355 354 354 354 354 354 354 354 354 354 354 354 353 354 354 354 354 354 354 354 354 354 354 353 352 351 350 349 349 348 349 349 349 349 349 349 349 348 349 349 350 350 350 350 351 351 351
329 336 332 334 329 325 315 314 301 301 299 296 302 305 310 309 309 312 315 319 323 325 326 326 325 322 321 320 316 316 319 331 331 337 336 344 333 337 343 346 347 351 354 355 354 355 355 356 355 355 355 354 353 353 353 353 353 354 354 354 354 353 353 353 354 354 354 354 354 354 353 353 353 352 351 350 349 349 349 349 348 348 348 349 349 349 349 347 349 349 350 351 351 351 352 351 350
334 335 330 329 319 319 309 308 304 301 298 299 301 307 308 309 310 314 319 323 325 326 326 323 321 324 320 317 321 321 322 324 334 334 336 336 334 340 343 345 352 353 356 354 354 354 355 356 356 355 355 354 353 353 354 353 353 353 354 354 354 353 352 352 353 353 353 353 353 353 353 352 351 351 350 349 348 349 349 348 347 347 347 347 348 349 349 348 349 349 351 352 351 350 350 349 349
332 333 333 328 313 307 307 305 304 305 300 302 301 307 308 310 312 314 319 324 325 326 325 324 323 325 325 324 324 319 322 328 338 341 335 342 343 343 345 348 351 354 354 353 354 355 356 355 355 355 354 354 354 353 353 353 353 353 353 353 353 353 352 352 352 352 352 352 353 352 351 351 350 350 349 348 348 348 348 347 347 346 347 347 348 348 349 349 349 350 352 352 351 349 349 349 348
330 328 330 323 310 315 309 302 301 302 306 309 305 308 310 312 312 315 319 324 325 326 326 324 322 321 320 323 325 323 326 323 335 339 336 343 342 347 349 353 351 353 353 354 354 355 356 356 355 354 354 354 353 353 353 353 353 353 353 353 353 352 352 351 351 351 352 351 352 350 350 350 350 349 348 347 348 347 346 346 347 347 346 347 347 348 348 349 350 351 351 351 350 349 349 349 348
320 323 321 317 313 313 303 302 301 303 305 310 308 308 311 313 315 315 317 321 324 325 326 324 325 324 320 325 326 330 335 333 332 339 341 345 345 349 351 350 350 351 352 353 356 357 357 356 354 354 354 354 353 353 353 353 353 353 353 353 353 352 352 351 351 351 349 350 349 349 349 348 348 348 346 346 346 346 345 345 346 346 346 346 346 347 348 348 350 351 350 349 349 349 349 348 348
325 317 314 308 306 306 302 303 303 306 307 310 311 309 312 314 315 314 315 314 317 320 322 325 325 322 321 326 321 335 335 342 342 347 349 347 347 352 351 348 347 350 352 355 357 357 358 355 354 353 354 354 353 353 353 353 353 353 353 353 353 352 352 351 351 350 350 349 349 348 348 348 347 346 345 345 345 345 345 345 346 345 346 346 346 347 347 347 349 349 349 349 349 349 348 348 348
318 317 317 309 304 306 302 302 303 308 309 310 310 311 317 315 315 314 313 314 315 317 320 322 324 318 320 323 325 333 337 345 346 348 347 347 350 352 350 347 347 349 353 354 356 358 357 355 354 353 354 354 353 353 353 353 353 352 353 353 352 352 351 351 350 349 349 349 349 348 347 347 346 345 345 345 345 345 344 346 345 345 346 346 347 347 347 348 348 349 349 349 349 349 348 347 346
314 313 306 306 306 301 302 302 301 304 307 309 310 311 312 314 313 314 313 314 314 317 320 322 323 317 320 319 324 331 337 347 346 346 347 349 351 352 350 348 350 351 352 353 355 356 354 355 354 354 353 354 353 353 353 353 352 353 352 352 352 351 351 349 349 348 348 348 348 347 347 346 346 345 345 344 344 344 344 345 345 345 345 347 347 346 347 348 348 348 349 349 349 348 348 347 345
308 311 312 304 301 300 300 301 304 306 307 309 310 313 313 314 313 313 314 315 317 316 320 323 318 319 319 320 332 342 344 346 345 344 349 352 352 350 347 350 351 353 351 352 355 355 355 355 355 354 354 353 353 353 353 353 353 353 353 353 352 351 350 349 348 347 348 348 347 347 346 345 345 345 345 344 344 344 345 345 345 346 348 347 346 347 347 348 348 348 348 348 348 347 346 346 345
306 306 307 301 300 300 302 302 304 305 308 309 308 312 315 313 314 312 313 312 314 316 317 320 317 321 317 318 330 339 342 345 346 347 350 351 349 351 350 350 351 352 352 353 354 355 354 352 354 355 354 354 353 353 353 353 353 353 353 353 352 351 349 348 348 348 348 348 347 347 345 345 345 344 344 344 344 345 345 345 345 347 347 346 346 347 347 347 348 348 347 348 348 346 346 345 346
307 308 305 301 301 302 303 302 303 305 306 307 308 311 315 312 312 314 313 313 313 313 316 320 324 321 315 317 334 343 340 344 349 349 349 347 348 348 351 351 350 350 351 353 353 353 354 352 350 354 353 354 353 353 353 353 353 353 353 353 352 350 349 348 348 349 349 348 347 346 346 346 345 345 344 344 344 345 344 345 345 344 345 345 346 347 347 347 348 347 347 346 346 346 346 346 347
308 309 306 300 305 303 302 302 304 302 303 308 311 312 313 311 312 314 314 311 312 312 318 324 322 321 316 328 335 335 342 344 349 348 348 348 347 345 347 348 348 349 350 352 352 352 351 351 350 351 353 354 354 354 353 353 353 354 353 352 351 350 349 348 349 349 349 348 348 347 347 346 345 345 345 344 344 344 345 345 345 345 345 345 345 346 346 347 347 346 346 346 346 346 346 346 346
308 311 307 304 302 302 304 301 303 302 303 308 311 311 311 313 313 313 313 311 312 317 320 322 321 317 319 315 329 336 340 345 347 347 347 347 347 346 344 345 346 347 347 350 353 352 351 351 350 350 352 351 352 354 354 354 353 353 353 352 351 350 349 348 349 350 349 349 348 348 347 345 345 346 345 344 344 344 344 344 345 345 345 345 345 345 345 346 346 345 345 346 346 346 346 344 343
311 309 306 301 300 301 302 302 305 303 303 309 311 312 310 312 314 310 311 312 313 319 318 316 321 320 324 324 332 341 344 345 346 347 345 344 346 345 344 344 344 345 347 350 351 351 351 351 351 350 350 352 352 353 353 354 353 353 352 352 351 350 349 349 349 350 350 349 349 348 346 347 345 345 345 344 344 344 344 345 345 345 345 345 345 345 345 346 345 345 345 345 345 345 344 341 340
312 309 301 301 298 300 303 303 303 300 306 309 312 311 308 309 314 313 315 314 311 315 316 319 318 322 331 336 341 343 345 346 346 345 345 343 344 342 342 342 342 343 345 348 349 350 350 351 351 351 350 351 351 353 353 353 352 352 352 351 351 350 350 349 350 349 350 349 349 349 347 348 351 348 346 346 344 345 344 344 344 344 344 344 344 344 345 345 345 345 345 345 344 343 342 340 340
309 302 300 299 301 301 305 304 306 308 306 308 309 310 309 307 311 312 314 312 312 315 315 321 327 335 336 342 344 344 345 345 345 342 341 341 342 340 339 340 341 341 343 345 348 350 350 352 351 350 351 350 350 351 351 352 354 352 353 353 352 352 350 349 351 351 353 353 349 350 350 348 347 348 347 345 346 345 345 343 343 344 344 344 343 343 344 344 344 345 344 344 343 343 341 347 343
304 302 301 298 302 304 308 308 309 307 307 309 309 310 309 309 311 313 309 310 311 312 314 324 331 335 340 342 342 342 344 346 346 343 340 340 340 339 339 341 341 341 341 345 347 350 351 351 352 350 350 351 350 350 350 351 352 351 352 351 350 350 351 349 347 350 349 353 350 347 349 349 346 347 347 345 345 345 344 343 343 344 343 343 343 343 343 343 344 344 342 343 341 338 343 337 340
306 303 299 300 305 306 308 309 308 310 310 308 309 308 308 310 311 314 309 309 311 311 311 319 327 331 335 338 342 342 343 344 346 346 341 339 341 341 340 340 341 341 342 344 347 350 350 348 349 349 350 350 350 350 352 351 351 351 351 352 350 352 351 350 349 350 350 348 348 348 346 348 346 348 346 345 345 345 346 344 344 344 344 343 343 345 344 344 342 340 341 340 344 342 337 334 338
306 303 300 303 306 305 307 309 310 310 310 309 308 309 307 309 311 312 310 308 309 311 313 314 320 330 336 338 340 341 343 344 344 345 343 340 341 344 344 344 343 343 344 345 347 347 347 348 348 348 350 351 350 348 350 351 351 351 350 350 350 349 351 349 348 349 351 349 349 348 346 348 347 346 347 346 346 346 345 346 345 345 346 347 342 348 346 346 340 340 340 337 336 335 335 339 341
305 302 305 305 307 305 308 309 310 310 310 309 309 307 307 311 310 310 310 307 307 310 314 316 316 331 336 338 338 341 343 343 343 344 344 342 341 342 346 348 349 347 347 345 345 346 348 349 349 349 349 350 349 350 351 351 351 349 350 348 349 351 350 350 348 349 348 351 349 348 348 348 347 346 347 346 347 346 345 344 344 347 347 347 341 345 341 343 338 335 334 331 334 338 341 342 343
299 304 305 306 307 305 308 308 308 309 308 307 307 309 310 308 308 310 310 309 312 315 316 317 318 333 338 337 339 339 340 342 344 343 345 345 345 344 343 345 345 343 344 346 347 347 348 349 350 348 348 348 350 349 349 350 349 350 350 348 348 347 349 349 348 347 348 349 349 349 347 344 344 344 344 345 344 346 344 344 344 346 346 345 344 342 342 339 334 333 334 336 338 339 341 343 344
302 300 304 305 306 304 307 307 308 308 307 307 309 311 308 308 305 310 309 311 313 315 315 316 318 329 335 338 335 339 339 341 344 346 346 347 347 344 343 343 344 347 345 348 348 348 347 348 349 348 348 348 349 348 349 349 350 349 349 349 348 346 347 348 347 347 348 347 349 349 347 344 343 343 344 343 344 345 345 346 346 343 342 342 342 341 338 334 332 333 337 336 336 340 341 345 346
300 300 304 304 304 305 306 306 307 307 308 309 309 307 307 309 308 309 308 311 313 314 315 315 317 320 333 334 335 339 339 342 344 345 346 346 347 345 345 344 344 344 344 347 347 347 347 348 349 348 349 348 348 348 348 348 349 349 349 347 348 349 349 347 348 349 348 347 349 348 348 346 343 344 344 344 344 344 345 345 343 342 342 340 340 338 336 336 335 334 338 337 341 341 343 347 346
301 301 303 303 303 305 306 305 305 306 307 308 307 306 308 309 310 307 309 311 313 315 314 315 315 317 320 324 334 341 343 344 346 346 345 346 344 343 345 344 344 343 344 347 347 347 347 349 348 347 348 347 348 348 347 347 348 347 347 347 347 349 348 349 350 347 347 346 346 348 347 346 344 342 344 344 344 344 344 347 346 344 341 344 339 338 336 334 334 336 339 339 338 342 345 348 347
302 302 301 302 303 304 305 304 305 306 306 307 304 305 306 309 307 303 310 312 314 313 313 314 314 314 317 319 332 341 343 345 347 347 346 345 345 344 344 344 344 344 345 345 345 346 348 348 348 348 349 350 348 347 345 348 349 347 347 347 348 348 348 349 348 348 347 347 347 348 348 347 346 344 346 345 344 344 344 346 344 344 341 340 341 339 340 338 339 340 344 341 342 345 346 347 346
300 300 301 300 302 303 304 304 305 306 304 306 306 304 307 307 307 304 309 312 313 312 312 312 313 315 317 319 327 341 342 345 349 348 344 344 343 345 346 345 345 345 344 346 346 348 348 348 348 349 349 349 348 347 347 346 346 346 348 347 347 348 350 348 347 348 346 346 347 348 348 348 348 345 345 347 346 344 344 343 345 343 343 341 341 342 338 342 344 345 348 350 349 350 348 350 350
298 299 296 298 300 300 303 302 304 305 303 306 307 303 302 304 303 307 310 312 312 311 311 312 312 314 315 322 340 340 340 344 347 346 346 346 346 347 347 349 348 347 347 348 348 348 348 349 348 348 348 349 348 347 346 346 347 345 347 347 347 348 349 349 347 347 348 348 348 348 348 347 348 345 344 346 346 344 345 346 344 346 346 344 347 348 348 350 348 348 350 349 349 350 350 350 345
299 298 297 296 297 296 301 303 304 303 304 306 305 294 298 302 305 308 310 310 311 311 311 311 312 314 315 329 333 338 340 342 344 345 346 348 347 347 348 351 351 349 348 348 349 347 348 350 349 349 349 348 349 348 347 345 346 345 346 347 348 348 348 346 347 348 347 347 347 348 347 347 347 345 345 346 345 344 346 345 344 344 345 349 349 350 347 344 344 345 346 347 346 348 347 347 343
294 296 297 293 293 293 300 301 303 301 305 304 305 295 298 302 305 308 310 310 309 308 309 311 311 313 314 324 329 334 339 342 343 345 346 351 351 349 350 353 352 352 349 349 348 349 348 348 349 348 348 348 348 348 347 347 347 346 345 346 346 347 347 346 346 348 347 346 347 347 347 346 347 345 346 346 345 345 344 343 345 343 348 350 347 348 345 345 346 346 345 345 349 346 345 344 343
297 293 290 293 291 294 299 302 302 298 303 305 302 295 298 303 305 308 310 309 309 308 309 310 310 311 313 316 322 333 337 340 343 345 349 353 353 350 351 352 353 352 352 352 350 348 348 349 349 349 349 347 347 348 348 347 346 347 347 345 346 348 344 345 346 347 346 345 346 346 347 347 347 347 347 347 346 345 342 344 343 347 350 348 347 348 347 343 345 347 349 351 347 341 342 343 345
294 292 291 291 292 293 296 299 302 302 302 303 301 295 299 301 306 309 310 309 308 308 308 309 310 311 313 315 318 326 332 339 343 345 348 349 351 351 352 353 352 353 353 352 349 348 348 349 349 350 348 348 348 348 348 348 347 347 347 347 346 347 345 344 344 347 346 346 344 344 346 347 347 347 348 348 346 346 344 344 344 349 350 348 348 347 343 343 347 346 351 350 351 340 339 341 344
290 292 290 294 292 293 292 299 301 301 301 298 301 297 299 303 306 307 310 310 308 307 308 309 309 311 312 314 316 319 326 333 336 342 345 346 347 350 351 352 354 355 354 352 351 348 348 348 348 350 350 349 348 348 348 348 348 347 346 346 346 345 346 345 345 345 345 344 345 344 346 346 347 348 349 349 348 349 347 346 346 349 347 348 347 347 344 346 348 352 350 349 346 342 341 342 342
288 290 289 291 293 294 293 293 298 300 300 297 299 298 299 302 303 306 307 308 308 307 308 309 309 311 312 313 313 316 318 328 334 337 340 342 345 348 350 354 356 356 355 353 350 348 347 347 348 348 349 348 348 349 349 349 350 349 348 347 346 345 346 344 344 344 344 345 344 346 346 347 347 349 350 350 350 347 346 346 347 348 347 347 346 345 345 346 348 350 349 347 346 344 343 344 340
290 291 290 291 290 290 292 296 299 299 297 296 297 296 298 300 302 304 305 305 306 307 309 309 310 310 311 312 313 314 315 319 330 337 342 343 344 346 350 352 355 356 356 353 350 348 347 348 348 347 348 348 349 348 347 346 346 344 343 344 343 343 344 342 345 344 345 344 345 345 345 348 348 350 350 350 350 349 347 344 346 348 346 346 344 343 342 342 346 346 345 345 344 343 344 342 340
290 290 290 290 290 292 294 296 298 299 296 296 297 297 298 299 301 303 304 306 305 305 307 307 308 309 311 312 313 314 316 318 327 334 340 347 347 347 349 352 352 355 355 354 350 348 347 346 347 345 348 349 347 345 345 344 343 343 342 342 342 343 342 343 343 344 344 344 345 344 346 347 349 350 349 349 349 348 347 346 347 347 346 345 344 343 344 346 347 347 344 344 342 341 340 344 342
289 289 289 288 290 289 294 295 298 299 294 294 297 297 297 299 302 303 305 305 303 304 305 306 308 310 311 312 312 314 316 318 323 331 343 346 346 346 347 349 351 351 353 353 351 349 348 348 347 347 347 348 348 347 346 345 346 343 341 340 340 341 340 339 340 343 345 346 346 346 346 349 350 350 349 350 350 349 348 345 346 345 345 344 345 344 347 345 346 345 343 340 342 339 338 341 340
289 289 289 288 289 291 293 294 296 297 295 293 297 295 296 298 300 303 302 303 304 306 306 307 308 309 310 311 313 314 314 317 319 325 338 339 343 346 347 349 351 351 353 353 353 351 348 347 347 348 347 347 347 348 346 346 347 346 343 342 340 340 342 345 344 344 346 345 347 347 348 350 350 349 350 350 350 349 347 346 345 345 346 345 344 344 352 347 345 344 343 340 338 342 339 341 342
289 288 287 286 290 288 286 291 293 295 294 293 295 294 295 298 300 301 303 303 304 305 306 307 309 308 309 311 313 313 313 315 318 323 333 342 342 344 346 347 350 350 351 352 352 351 348 347 347 347 346 347 347 348 347 350 349 348 346 346 345 344 342 345 348 348 346 346 345 348 349 351 350 349 350 350 349 350 348 346 346 345 345 346 344 342 344 346 346 344 344 342 340 338 336 337 342
290 289 289 288 288 289 289 290 291 293 294 294 293 291 292 295 295 297 300 302 302 303 305 306 307 309 310 311 311 314 314 317 318 322 329 336 346 343 344 345 347 347 348 349 350 349 348 347 347 347 347 347 348 348 349 350 348 345 344 344 344 343 345 344 344 343 345 345 344 346 347 350 350 350 350 350 349 349 349 347 345 346 345 346 346 343 346 344 344 344 345 344 342 340 336 338 340
289 291 290 290 290 289 289 290 288 288 287 291 290 284 285 293 294 295 299 300 300 302 303 303 305 307 308 309 310 312 315 316 317 320 323 334 338 346 349 347 345 346 347 348 350 349 349 348 348 349 348 348 348 349 351 350 346 343 341 338 337 338 338 340 339 340 342 342 341 345 349 349 350 351 350 349 349 348 349 348 348 346 345 344 345 343 345 346 344 343 343 346 343 343 341 336 336
287 289 292 291 290 290 289 288 288 284 283 289 292 283 282 292 292 295 297 298 299 302 302 302 304 304 306 307 308 309 310 313 316 318 320 323 335 338 343 349 347 346 347 350 351 351 351 350 350 350 349 348 348 349 350 350 347 345 344 343 341 340 339 341 344 344 344 343 346 346 348 351 350 351 351 350 349 349 349 348 348 347 345 345 345 344 344 346 344 342 343 344 344 343 342 337 335
286 292 291 291 290 289 289 289 288 287 291 291 290 289 284 284 290 295 297 297 297 299 301 302 303 304 305 307 308 310 310 312 312 315 318 321 326 336 337 343 348 347 348 350 352 353 352 351 351 349 348 348 349 349 349 350 347 346 345 345 344 344 344 342 343 344 345 346 345 347 349 348 350 350 350 349 349 349 348 348 348 347 344 345 342 342 344 345 344 344 344 346 346 341 341 338 338
289 290 291 290 290 290 290 289 288 288 287 284 288 290 284 284 290 295 296 293 295 297 299 302 303 304 305 306 307 309 311 312 312 312 315 318 323 329 334 338 344 347 348 350 352 353 353 352 351 350 349 347 348 350 348 348 349 348 347 347 345 346 347 345 344 345 346 347 347 349 348 348 349 350 350 350 350 348 348 348 348 346 345 345 343 342 342 342 340 342 342 341 340 340 341 340 341
291 292 292 292 291 291 290 289 288 288 286 281 286 289 282 283 289 291 294 293 293 295 298 300 302 304 305 306 307 309 310 312 312 312 314 316 321 325 332 336 341 347 349 350 352 354 354 351 348 349 348 347 349 350 349 348 349 350 348 348 347 346 347 345 345 345 346 348 347 347 347 346 346 348 349 349 349 348 348 348 347 346 346 345 343 344 345 341 339 341 344 343 341 341 339 339 340
294 292 289 289 289 289 290 289 289 286 280 283 287 289 286 281 287 289 290 291 294 296 298 300 302 303 305 307 307 308 309 311 312 312 313 316 319 324 328 332 336 346 350 350 350 352 353 350 348 347 347 347 349 349 349 349 349 350 350 350 349 348 348 346 344 345 345 346 345 345 345 346 347 347 348 349 350 349 349 348 347 347 347 347 344 344 345 343 338 341 342 344 341 339 339 338 339
291 289 288 288 287 289 287 287 288 280 278 285 289 288 288 280 285 291 295 297 297 297 296 298 300 301 303 305 306 307 308 309 311 312 312 314 317 321 325 327 334 339 348 349 350 352 351 350 349 346 346 346 348 348 349 349 348 349 352 352 350 350 349 345 344 343 344 345 345 344 345 346 346 347 348 347 348 349 349 348 348 347 346 346 346 346 346 346 343 340 340 341 340 341 342 339 338
290 289 288 283 281 282 278 282 277 278 278 286 289 289 285 284 289 293 295 296 297 298 298 299 300 301 304 304 306 308 309 309 309 310 312 314 315 319 324 326 332 338 345 348 349 350 350 349 348 346 345 346 347 348 349 351 349 350 351 351 350 352 351 348 346 344 344 344 344 344 344 343 344 345 346 347 347 348 347 347 347 346 345 346 346 345 346 347 346 345 342 337 339 339 339 338 336
288 286 285 282 278 277 273 278 281 281 285 289 287 290 284 289 291 295 294 297 298 299 300 300 300 301 302 303 304 305 307 308 309 311 312 313 315 319 322 324 326 335 343 347 348 349 348 348 348 347 347 346 346 346 348 349 350 351 352 351 350 349 350 351 349 347 346 346 346 345 344 344 344 345 346 347 347 347 347 347 347 347 347 346 346 346 346 346 347 344 343 338 335 337 340 339 336
288 291 288 285 283 280 274 278 275 277 281 286 289 284 281 283 286 295 296 298 299 299 299 300 301 301 303 303 303 305 307 309 309 310 310 312 316 321 323 323 326 332 342 346 347 347 347 347 347 346 346 347 346 345 347 348 349 352 352 351 349 349 350 350 350 350 348 347 347 347 346 346 344 345 345 347 347 348 348 347 347 347 347 346 345 345 345 345 346 345 340 341 341 334 336 335 335
291 291 291 286 283 288 280 283 282 282 281 282 284 282 288 287 295 297 298 298 298 299 300 300 300 301 301 301 302 303 305 307 309 311 312 314 316 320 324 325 326 330 339 345 346 348 348 347 347 347 347 348 346 345 345 346 349 352 352 351 350 350 350 350 351 351 350 350 350 347 347 348 347 347 348 347 347 347 347 347 347 346 346 346 345 344 343 343 342 342 342 341 338 336 334 333 334
289 289 284 286 293 289 283 283 287 284 280 279 287 286 288 293 293 295 296 296 297 298 299 299 300 301 302 302 303 304 304 305 309 310 311 314 316 321 324 326 328 330 337 343 345 348 349 348 348 348 347 348 346 345 345 346 349 351 351 350 349 349 350 349 350 351 351 352 351 349 348 349 349 349 347 347 346 346 347 346 345 345 345 344 344 343 342 342 340 339 338 336 333 332 332 331 333
289 284 288 293 294 292 285 278 280 279 275 278 284 281 284 285 282 294 294 293 294 296 297 299 301 301 301 303 304 304 305 306 307 309 312 314 316 319 323 326 328 330 335 341 345 349 350 349 349 347 347 346 346 345 345 346 347 348 350 348 349 349 349 350 350 350 351 351 350 348 349 350 349 349 347 347 346 345 345 344 344 343 343 343 342 341 340 338 337 336 335 333 330 327 326 327 328
290 288 295 286 280 279 285 281 273 273 273 277 281 283 283 285 285 291 291 293 294 295 296 297 298 300 301 303 304 306 307 307 307 308 309 312 314 317 320 324 327 328 333 338 344 348 350 351 350 349 348 348 348 346 347 346 348 348 349 348 348 348 348 349 350 349 350 350 350 347 349 349 348 347 346 345 344 344 344 343 343 341 341 340 339 338 338 337 335 334 332 330 329 328 326 324 323
294 294 290 293 288 284 280 281 282 282 275 276 278 282 280 288 289 291 292 294 296 296 296 296 297 298 299 301 302 304 306 308 308 308 309 312 315 317 318 321 324 327 329 335 341 346 348 349 350 349 349 349 348 348 348 347 347 347 349 348 347 347 347 347 348 346 348 348 349 348 347 347 347 345 344 344 342 342 342 342 341 341 339 338 336 336 336 335 334 334 332 331 330 330 329 329 327
287 287 286 288 288 290 288 287 282 280 277 277 276 276 282 289 293 293 293 294 296 296 297 298 299 300 301 302 303 304 305 306 308 310 309 311 315 318 318 321 322 326 330 333 337 343 346 348 349 349 348 348 348 348 349 348 346 347 348 347 347 348 348 347 348 348 349 348 350 348 346 347 345 343 343 342 342 341 340 340 341 340 338 337 336 335 335 334 333 332 331 332 330 329 328 327 327
288 287 285 286 284 281 278 277 286 284 281 278 277 276 285 291 295 294 294 296 296 297 297 297 298 300 302 303 305 306 308 309 310 311 312 311 314 317 318 318 321 323 327 331 334 340 345 347 348 349 348 347 348 348 349 348 347 348 348 348 347 348 347 347 347 347 348 348 348 347 346 345 343 341 341 340 340 341 341 340 339 337 337 335 333 333 333 333 332 332 332 331 330 328 327 327 326
Wind_Speed
6 3 4 6 6 4 5 3 6 6 7 10 8 9 5 2 1 4 3 2 5 4 2 2 7 9 5 3 4 5 4 5 5 4 5 4 8 16 13 15 17 18 17 16 17 18 18 17 16 16 17 17 16 16 16 17 17 17 17 16 16 16 16 15 15 14 14 13 13 13 13 13 13 13 13 13 12 12 12 12 13 13 14 14 14 14 14 13 12 12 11 10 9 8 8 7 6
2 3 5 6 5 6 2 1 5 5 7 6 7 3 4 4 7 1 3 3 6 4 4 4 7 7 4 3 2 4 6 8 8 6 7 7 13 13 13 17 20 19 16 15 16 16 17 18 16 16 17 18 17 17 16 16 16 16 16 16 16 16 16 16 15 14 14 13 13 13 13 13 13 13 13 13 12 12 12 13 13 13 14 14 14 14 13 13 12 12 11 10 9 8 7 7 6
4 6 7 6 4 4 4 5 7 9 8 11 6 7 3 9 5 4 5 4 4 4 4 5 9 8 5 5 7 7 5 2 7 9 8 11 16 10 14 17 18 18 17 14 15 16 14 17 16 16 16 17 17 17 17 17 17 16 16 15 15 15 15 16 15 14 14 13 13 13 13 13 13 13 12 12 12 12 12 12 13 13 13 13 13 13 13 12 12 11 10 10 9 8 7 7 7
4 5 5 7 2 3 6 6 9 9 10 8 9 5 6 3 4 4 5 5 3 4 6 8 8 6 5 6 3 1 6 4 4 9 8 11 7 13 15 17 17 14 13 13 15 15 13 18 17 17 17 18 17 17 17 17 17 16 16 15 15 15 15 15 15 14 14 13 13 13 13 12 12 12 12 12 12 11 12 12 12 12 13 13 13 12 12 12 11 10 10 9 9 7 7 7 7
6 5 5 6 2 6 5 7 9 9 12 10 10 7 6 4 6 3 5 4 4 3 6 6 4 6 2 3 4 4 5 6 6 4 10 7 12 16 16 17 15 14 13 14 14 14 15 22 18 17 17 18 18 17 17 17 17 16 16 15 15 15 15 15 15 14 13 13 12 12 12 12 12 12 12 11 11 11 12 11 12 12 13 12 12 12 11 11 11 10 9 9 8 8 7 6 6
5 4 4 6 5 2 0 7 9 11 10 9 9 5 7 3 4 4 5 4 4 3 2 8 2 10 7 7 1 0 3 3 8 5 13 8 15 17 19 15 14 13 13 13 13 12 15 22 19 18 17 18 18 18 17 17 17 16 16 16 15 15 15 15 14 14 13 13 12 12 11 12 12 12 11 11 11 11 12 12 11 12 12 12 11 11 11 11 10 10 9 9 9 8 7 6 6
6 6 5 5 3 6 10 13 14 13 14 12 6 4 5 6 1 2 5 5 4 4 4 6 3 8 7 5 5 5 5 3 7 6 7 15 16 16 17 15 14 14 15 13 12 12 19 20 19 18 17 18 19 18 18 17 17 17 16 16 15 15 15 14 13 13 13 12 12 11 10 10 11 11 11 11 11 11 12 12 12 11 11 11 11 11 10 10 10 10 10 10 9 8 7 6 5
5 8 6 9 8 6 13 13 14 11 9 7 7 9 4 1 3 6 3 7 7 4 7 4 5 5 5 6 6 6 3 7 9 13 15 16 17 16 14 14 14 15 15 13 12 11 20 20 18 18 18 18 19 19 18 17 17 16 16 16 16 15 14 14 14 12 11 12 11 11 10 10 11 11 11 11 11 11 12 12 12 11 11 10 11 11 10 10 9 9 9 9 8 8 7 6 4
6 7 3 9 12 8 12 15 15 15 13 2 7 6 4 5 4 6 8 5 2 1 6 6 5 6 7 2 4 5 5 7 9 14 16 17 17 16 11 12 13 13 15 13 12 14 18 19 18 17 18 19 19 19 18 18 17 16 16 16 15 15 14 14 13 12 12 11 10 10 10 10 11 11 11 11 11 11 12 12 11 11 11 11 10 10 10 9 9 9 9 9 8 7 7 5 4
7 9 9 9 9 15 13 15 15 13 13 11 12 12 11 9 7 6 9 6 3 2 3 3 5 5 3 8 5 6 5 7 10 13 16 16 17 13 13 12 11 13 13 13 12 15 16 19 17 17 17 17 17 17 17 17 17 16 16 15 14 14 13 13 12 12 11 11 11 10 9 9 10 10 10 11 11 11 12 12 11 11 11 10 9 9 8 8 9 9 8 8 8 7 6 5 4
10 9 8 10 14 15 15 14 16 16 14 7 11 11 8 7 8 7 8 8 4 4 4 3 6 5 9 7 4 2 4 7 9 12 16 18 15 13 13 10 10 11 11 12 13 15 16 19 19 16 16 16 16 15 15 16 16 14 14 13 13 14 14 13 13 12 12 12 11 10 9 8 9 10 10 11 11 11 11 11 11 11 10 9 8 8 7 8 8 8 8 7 7 7 5 4 3
11 11 9 12 14 14 14 13 16 15 14 11 12 11 7 9 10 12 10 12 8 8 7 7 1 1 5 5 4 1 6 5 7 11 14 16 14 12 11 9 10 10 10 11 12 14 17 18 17 17 17 15 15 15 15 15 14 14 14 14 14 14 14 13 12 12 12 12 11 10 10 9 9 10 10 10 11 11 11 11 11 11 9 8 7 7 7 8 8 7 7 6 6 6 5 3 3
13 11 13 13 14 14 15 16 14 15 15 13 11 12 10 11 13 14 12 8 6 5 9 8 1 5 3 4 5 7 6 6 7 12 12 12 13 11 9 8 10 9 10 10 11 14 17 17 17 16 17 17 14 15 14 15 14 14 14 14 14 14 14 13 12 12 13 12 12 12 11 10 10 10 10 10 11 11 11 11 10 10 9 8 7 7 7 7 7 7 6 5 5 5 4 4 3
13 11 12 14 14 15 16 15 14 14 14 11 12 9 12 11 12 13 12 14 10 10 7 4 5 1 4 7 5 5 6 8 10 10 10 12 12 10 9 7 8 9 10 10 11 13 15 16 16 16 16 16 15 15 14 14 14 14 14 15 15 14 14 13 13 12 12 12 12 12 11 10 11 10 10 10 10 10 9 10 10 9 8 7 6 6 6 6 6 6 5 4 4 4 3 3 2
13 12 11 12 14 15 17 15 16 15 13 15 12 11 11 11 11 12 14 14 15 9 7 1 2 8 3 5 8 7 9 10 10 11 12 11 13 12 10 9 9 8 9 10 10 12 14 14 15 15 16 15 15 12 13 14 16 16 15 15 15 14 14 13 13 13 13 12 12 12 11 10 10 10 10 10 10 10 9 9 10 9 8 7 6 6 5 5 5 5 4 4 3 3 3 2 2
10 11 10 14 16 17 15 17 15 16 12 14 12 12 12 11 11 10 9 12 11 6 9 5 2 3 2 4 7 12 14 15 10 10 13 13 12 12 11 10 8 7 7 9 10 12 12 14 13 13 15 15 14 13 12 14 15 16 16 16 15 15 14 13 13 13 14 13 12 12 11 10 9 9 10 10 10 10 9 8 10 8 7 7 6 5 4 4 4 4 3 3 3 2 1 1 1
10 10 13 15 17 20 15 16 17 16 12 15 9 12 14 13 11 10 7 6 15 10 12 8 6 1 7 6 11 13 14 13 13 12 14 11 9 8 9 7 7 7 6 9 9 10 13 14 15 12 14 16 15 13 11 12 13 16 14 15 15 15 14 13 13 12 14 13 12 12 11 9 8 8 8 8 10 9 7 8 9 8 6 6 5 5 4 3 3 2 3 3 1 0 2 3 3
10 13 15 18 16 19 16 18 16 14 15 16 12 11 14 15 12 9 7 13 17 10 11 9 9 7 8 11 12 13 13 14 15 15 11 11 9 9 9 9 8 8 8 8 10 11 12 12 14 13 12 15 14 11 10 10 12 14 13 13 12 13 13 12 11 10 13 11 12 10 8 7 6 7 7 9 8 8 7 7 8 8 6 6 5 4 3 2 2 1 1 1 1 4 6 6 7
13 13 16 18 17 16 16 16 17 16 18 14 11 10 11 15 11 10 11 13 14 16 12 11 11 10 10 12 14 14 14 13 14 13 17 15 12 13 11 10 10 9 9 9 9 11 11 11 12 12 13 14 14 12 9 10 13 12 12 12 10 12 12 12 10 10 9 11 10 8 7 6 6 6 6 7 6 7 9 7 8 7 6 6 5 4 3 2 2 2 2 3 4 8 8 4 5
16 14 17 18 17 17 19 17 17 17 14 15 13 11 15 14 13 6 14 14 16 18 14 13 11 11 12 13 14 15 14 14 14 12 13 14 12 11 11 13 13 12 11 9 9 9 10 10 12 12 12 14 12 10 9 9 11 10 10 10 10 10 11 10 11 9 8 9 9 7 6 6 6 5 8 6 8 7 9 9 8 8 7 6 5 6 7 6 5 8 7 6 9 8 5 5 4
13 17 17 16 18 19 18 19 16 16 15 14 15 9 14 15 13 11 11 16 17 16 19 17 15 15 13 14 15 14 14 15 14 13 12 12 10 9 8 9 12 14 13 12 9 10 12 11 11 11 11 12 12 9 9 9 10 9 9 10 9 9 9 10 9 9 8 9 9 7 7 6 6 6 7 7 7 6 7 7 7 7 7 7 8 6 6 6 7 6 7 7 5 4 3 2 3
11 20 20 19 15 18 20 13 17 15 13 16 15 14 14 11 12 14 14 16 13 14 15 19 17 15 15 14 14 14 14 14 14 13 13 13 13 12 9 9 9 11 13 11 11 11 12 11 12 11 12 12 12 9 9 9 9 9 9 9 9 9 9 9 8 8 8 8 8 7 7 7 7 6 7 6 6 5 5 5 5 5 5 5 6 5 5 4 5 4 5 5 4 4 3 3 3
15 14 18 19 18 17 14 15 16 16 14 16 17 15 10 16 14 15 18 17 13 13 15 19 18 19 15 13 15 14 14 14 14 15 14 13 13 12 13 10 9 10 10 11 12 12 12 13 13 12 12 11 12 10 9 8 8 8 8 8 9 9 8 9 8 8 8 9 9 8 7 7 6 5 6 5 5 5 4 4 4 4 5 5 5 5 4 4 4 4 4 4 3 3 4 4 4
13 14 15 18 6 12 5 10 12 16 17 17 16 13 16 18 19 14 17 16 17 11 5 6 2 12 16 14 14 15 15 15 15 13 13 11 8 10 10 10 10 6 8 10 11 11 12 14 14 13 12 12 11 11 10 8 8 8 8 8 8 8 8 8 8 8 8 8 8 7 7 7 6 5 5 5 5 4 4 4 3 4 4 4 4 4 5 5 5 4 4 4 5 4 5 5 4
14 15 6 4 6 14 9 8 8 11 16 16 16 20 19 18 16 13 18 17 17 14 9 6 2 8 13 14 13 13 13 12 13 12 10 8 7 8 11 9 10 10 8 9 10 11 13 13 14 14 13 13 11 11 9 7 8 9 9 8 8 7 8 7 7 7 7 8 8 8 8 6 6 5 5 5 5 5 5 4 4 4 4 4 4 4 4 4 5 5 4 4 4 5 4 4 4
15 15 5 5 7 12 11 9 10 11 10 12 12 16 17 18 17 20 19 18 17 14 13 12 9 11 13 13 13 14 13 13 12 11 11 9 9 10 10 8 9 10 10 10 10 10 12 13 15 15 14 13 12 11 9 8 8 9 10 9 8 8 8 7 7 7 7 7 7 8 8 7 6 6 5 5 5 5 5 4 4 4 4 3 4 5 5 4 5 4 4 5 6 4 4 4 3
1 5 5 5 6 5 7 11 13 11 13 14 17 19 19 17 16 15 18 17 15 16 16 14 14 13 14 15 14 13 14 13 13 11 8 9 11 10 10 10 11 10 10 12 12 12 12 14 14 15 14 13 11 11 10 9 8 9 9 9 8 8 8 7 7 7 7 7 7 8 8 7 6 5 5 5 5 5 5 5 5 4 4 4 4 5 4 5 4 4 4 4 4 4 3 4 5
4 1 5 8 7 8 6 9 10 8 13 13 15 20 19 20 17 17 16 20 20 18 16 16 14 13 12 9 11 12 11 11 10 12 13 12 10 10 11 11 12 12 12 12 11 11 13 15 14 14 13 12 11 11 10 10 9 9 9 8 8 8 8 8 8 7 7 7 7 8 8 7 7 6 6 5 5 5 5 5 4 4 4 4 5 4 5 4 5 4 4 3 2 2 4 3 3
2 6 7 10 10 11 12 12 13 12 12 15 12 15 22 21 22 22 20 16 18 21 17 17 15 14 11 8 11 10 9 11 11 11 14 14 11 11 14 12 12 13 10 13 12 12 14 15 14 14 13 12 12 11 10 9 9 9 9 9 8 8 8 8 8 7 7 6 6 8 8 8 7 6 6 6 5 5 4 4 5 4 4 4 3 4 4 4 4 5 5 5 4 4 3 3 3
5 5 9 8 9 12 16 13 14 14 12 9 12 16 18 22 25 23 19 18 18 16 17 18 14 14 12 8 8 9 9 10 12 12 13 12 12 14 15 15 14 13 11 11 14 13 11 10 11 11 12 13 13 11 10 9 9 9 9 8 8 8 8 8 8 7 7 6 7 8 8 8 7 6 7 6 6 5 5 5 5 5 4 4 4 4 5 5 5 6 5 5 4 4 4 4 4
9 8 8 10 9 11 15 15 16 14 11 9 14 17 19 23 27 25 19 19 22 18 16 18 15 14 13 10 8 10 11 12 13 14 13 13 12 11 14 15 15 14 11 12 15 14 13 11 10 11 13 13 12 11 11 10 10 9 9 9 8 8 8 8 8 7 7 7 7 7 8 8 8 7 7 6 6 5 6 6 5 5 4 4 5 5 5 6 6 6 5 4 4 4 3 3 3
5 6 11 10 12 8 13 16 18 17 14 13 14 17 20 22 23 21 19 20 21 20 17 17 16 15 14 13 11 11 11 12 12 12 12 11 11 10 13 15 15 14 12 12 13 13 13 12 12 12 14 14 13 12 11 10 10 9 9 9 8 9 8 8 8 7 7 7 7 7 9 9 8 8 7 7 6 6 6 6 6 4 4 5 5 6 6 6 5 4 3 3 4 4 5 5 4
7 10 8 13 14 11 9 12 14 20 15 16 21 17 18 20 20 17 20 22 23 21 21 18 18 18 16 13 12 9 10 10 10 12 13 12 11 9 11 14 15 15 13 13 14 13 12 12 12 12 14 15 14 14 12 11 10 10 9 9 8 8 8 8 8 7 7 7 7 7 8 9 9 8 8 7 6 6 6 5 6 5 5 5 5 6 6 5 5 5 3 3 2 4 5 5 6
9 9 9 4 8 12 10 11 15 16 20 16 23 20 18 12 12 19 18 18 20 22 22 20 19 16 16 14 13 12 9 9 11 12 13 12 11 12 10 12 14 14 13 13 14 13 13 11 11 11 11 12 12 12 12 11 10 9 9 8 8 8 8 8 7 7 7 7 7 7 8 9 9 9 9 7 6 6 6 6 6 6 6 5 5 6 5 4 4 3 3 3 4 3 4 5 7
9 8 10 8 7 8 9 9 13 14 19 21 19 22 20 15 4 8 10 12 18 20 20 20 20 17 16 15 14 14 13 10 9 10 10 9 12 12 11 12 12 14 12 14 14 12 12 12 10 11 10 12 11 11 12 11 9 9 8 8 8 8 8 8 7 8 7 7 7 8 9 9 9 10 9 8 7 6 6 6 6 6 6 5 6 6 6 5 4 3 3 3 3 4 4 7 8
4 8 9 9 10 12 10 5 5 12 15 18 21 17 19 22 14 12 8 10 13 14 15 16 18 18 17 15 15 15 14 14 11 8 10 10 11 12 12 11 11 12 12 13 14 13 13 12 11 11 12 12 11 11 10 9 9 9 9 9 9 9 8 8 8 8 7 7 8 9 9 9 9 9 10 9 7 6 6 7 7 6 6 6 6 6 6 5 6 5 5 5 5 4 6 8 10
3 5 5 8 9 8 12 9 6 3 7 14 17 19 16 19 24 17 14 12 11 12 15 15 16 17 16 16 16 16 16 15 11 10 11 11 9 9 10 11 12 12 12 14 14 14 14 13 13 14 12 12 11 11 10 10 10 9 9 10 9 9 9 8 8 8 8 7 8 9 9 9 9 10 10 9 8 7 6 6 7 6 6 6 6 6 5 5 5 5 5 5 6 6 7 8 10
7 8 9 9 9 9 9 10 8 3 7 10 13 15 18 18 16 18 13 13 14 12 13 15 16 15 14 17 17 18 16 13 13 10 10 10 9 9 8 9 13 15 13 14 15 15 14 13 13 12 12 13 13 12 11 11 10 9 9 10 9 9 9 9 9 9 9 8 9 9 9 9 10 11 10 9 8 8 7 6 7 7 6 6 6 5 5 5 6 5 5 5 6 6 7 9 9
6 8 8 9 9 9 4 8 5 5 7 9 8 9 12 15 17 13 14 16 15 12 12 13 14 16 15 14 16 17 16 16 15 14 12 11 12 12 10 10 11 14 15 15 14 15 15 14 13 13 12 13 13 12 11 10 10 10 9 8 9 8 8 8 8 8 8 9 9 10 10 10 11 11 10 10 8 8 7 7 7 6 7 6 6 6 6 7 6 7 7 6 6 5 6 7 10
6 8 8 9 7 9 9 11 10 8 8 8 11 10 10 14 17 18 16 16 15 16 15 13 10 12 14 13 13 13 16 16 17 15 14 14 14 13 12 11 11 12 13 13 14 15 13 13 14 14 13 13 13 13 11 10 11 10 10 8 9 8 7 8 7 8 9 9 10 10 10 10 11 11 11 10 8 8 8 7 7 7 7 7 6 6 7 7 6 7 7 7 6 7 7 8 8
8 9 8 8 8 8 9 2 4 3 9 10 9 10 13 14 15 15 17 18 17 15 16 15 14 13 11 10 11 12 14 14 13 14 13 13 16 15 14 13 13 13 13 14 14 14 11 15 15 15 14 14 13 14 13 11 11 10 9 9 8 8 6 7 8 9 9 9 9 10 10 11 12 11 11 10 9 9 8 7 7 7 7 7 7 6 7 7 7 6 8 7 9 7 7 7 8
6 9 9 8 4 7 7 8 6 6 9 13 12 11 15 15 20 19 14 15 19 18 18 18 17 17 15 14 13 11 10 10 12 13 12 10 11 13 14 15 14 13 14 14 15 15 14 14 16 15 13 13 13 15 15 12 11 11 12 11 11 10 9 9 10 10 9 10 10 9 11 12 12 11 10 10 9 8 8 8 8 7 7 7 7 6 6 6 7 7 8 8 8 8 6 8 8
6 5 11 10 10 8 9 8 6 9 9 8 16 13 11 11 17 19 18 17 19 18 21 20 19 20 18 16 15 15 14 12 11 12 12 11 9 10 10 11 14 14 13 12 13 14 15 14 15 16 14 13 13 14 16 12 13 12 13 12 11 11 10 9 8 8 9 9 8 10 10 10 12 11 10 10 9 9 8 8 8 8 7 6 6 6 7 6 7 7 7 8 8 7 8 8 11
6 8 3 6 10 12 11 10 10 9 9 4 3 10 12 12 12 14 16 20 21 20 21 21 19 20 22 20 18 16 15 14 12 13 13 12 11 10 11 10 10 10 11 12 12 13 15 15 16 16 14 13 12 13 16 13 13 13 14 12 10 10 10 9 9 9 9 9 9 11 10 10 10 11 10 10 10 10 9 8 8 8 7 7 6 7 5 2 4 6 8 8 8 9 9 8 9
1 5 2 6 8 9 10 9 10 11 9 11 11 13 12 13 12 8 12 17 19 21 21 19 19 20 21 22 21 18 16 15 15 14 14 13 12 11 9 9 9 8 9 10 11 12 13 13 14 15 15 14 13 15 15 16 12 13 13 11 11 9 10 8 8 9 9 9 11 10 11 11 10 10 10 10 10 10 9 9 9 8 7 7 7 7 8 8 7 8 9 10 9 10 9 10 8
5 2 4 3 3 6 8 8 9 9 10 14 14 14 13 15 12 13 12 14 16 18 21 21 20 19 19 19 21 21 16 14 15 16 14 13 12 11 9 9 9 10 10 10 11 10 11 13 15 17 17 14 13 15 16 17 16 13 13 13 13 11 10 9 9 9 10 10 11 11 10 9 8 8 9 9 9 10 10 9 9 9 8 8 7 6 6 9 5 7 8 10 12 12 11 11 11
5 6 6 7 7 7 6 7 8 8 12 15 17 18 16 14 12 14 13 14 16 15 14 15 17 18 19 18 18 18 18 15 13 15 15 14 11 11 10 11 11 10 9 11 11 11 12 14 15 17 18 14 13 14 16 17 16 15 13 14 14 13 13 11 10 11 10 11 10 11 10 8 8 7 6 7 8 9 9 9 8 8 8 7 7 7 7 8 9 8 9 10 12 14 12 12 11
7 7 7 6 7 6 6 7 8 10 12 14 16 18 20 17 12 14 13 12 14 15 16 14 13 15 16 16 17 19 20 18 15 14 15 15 13 12 10 11 11 10 10 11 11 12 13 14 15 17 17 17 15 15 17 17 17 16 14 13 14 13 14 11 13 12 12 12 11 10 9 8 9 8 8 8 8 9 8 8 8 8 8 7 7 7 6 7 8 10 10 9 9 10 11 11 11
9 8 8 9 7 7 8 8 11 12 13 10 14 18 17 20 15 11 14 15 14 14 11 12 12 10 10 12 14 13 14 17 18 16 14 14 13 12 11 11 10 10 11 13 13 13 13 15 16 17 18 19 17 16 17 19 18 17 14 13 13 12 13 13 13 13 12 11 11 11 10 9 7 8 9 8 8 10 8 8 8 8 7 7 8 8 7 6 6 7 10 12 11 8 7 11 10
11 10 9 10 9 10 10 10 9 11 14 12 3 11 15 11 12 17 19 15 9 7 7 9 10 10 9 9 11 13 15 17 17 16 15 15 13 11 11 11 11 10 12 13 14 13 13 13 16 17 18 19 18 17 18 19 19 16 13 13 13 14 14 13 12 11 12 10 10 11 11 10 10 10 9 9 8 8 8 7 7 7 7 8 8 8 8 6 6 7 2 6 16 11 7 9 12
12 11 11 11 10 10 12 10 11 13 11 11 15 11 9 10 7 9 14 16 17 15 15 15 14 13 13 12 12 12 11 13 13 15 17 17 14 13 11 11 11 11 13 13 13 13 13 14 15 17 17 18 18 18 17 19 18 15 13 13 13 13 14 13 11 10 11 11 10 11 11 10 10 9 9 8 7 7 8 7 7 7 7 7 7 7 6 5 5 5 6 6 7 14 11 7 8
11 11 11 11 15 11 14 8 9 9 9 12 10 9 5 10 5 4 3 6 11 12 14 15 16 15 15 14 14 13 12 11 12 13 14 15 15 13 11 11 11 12 14 13 14 13 14 14 16 18 19 19 18 18 17 18 18 13 14 14 14 14 13 13 11 10 10 10 10 11 11 10 9 8 8 8 7 7 8 7 7 6 5 5 6 7 6 6 5 4 4 3 3 4 12 11 11
8 12 15 16 9 11 10 12 13 4 6 10 6 11 14 12 15 15 11 10 10 10 11 11 12 13 14 13 13 13 14 13 12 12 12 14 13 12 10 11 11 12 12 13 14 14 16 16 16 19 18 17 18 18 18 17 17 16 15 15 15 14 14 14 13 13 12 11 10 10 10 9 9 8 7 7 7 7 6 6 6 6 6 5 5 4 5 4 3 2 3 2 5 5 4 5 4
4 11 12 9 9 10 9 11 8 10 13 12 12 17 15 12 11 9 20 21 19 16 13 12 12 12 13 12 12 13 14 15 15 15 13 13 12 13 11 11 13 13 14 13 15 15 15 16 17 18 18 19 18 18 18 18 19 19 16 17 16 15 13 13 14 13 12 10 10 10 9 8 9 8 7 6 6 7 6 6 6 5 5 5 5 3 3 3 3 3 3 2 5 9 8 5 2
14 9 0 9 8 12 12 7 11 9 12 11 14 19 18 16 14 6 5 12 18 20 19 18 15 12 12 11 11 12 13 14 15 16 15 14 13 12 11 12 12 14 14 14 14 15 14 15 16 17 19 19 19 17 17 16 17 15 14 16 17 15 13 12 12 14 13 11 11 10 10 9 10 9 8 7 7 7 6 6 6 6 5 4 4 4 4 3 3 3 4 4 6 8 8 8 6
16 14 12 10 9 11 10 10 10 11 14 11 14 17 15 14 14 16 15 7 2 8 13 17 19 19 16 14 13 12 12 11 12 14 14 14 14 14 14 13 14 14 15 14 14 13 15 15 16 16 16 16 17 16 16 16 16 15 14 16 15 14 14 13 12 14 12 13 12 11 11 11 11 9 8 8 7 7 7 7 6 6 5 5 5 4 3 3 4 3 4 4 5 6 7 8 9
12 13 14 11 11 6 8 8 12 12 13 14 14 16 12 12 11 16 17 16 15 11 8 6 7 10 13 15 14 14 15 14 12 12 14 15 15 14 15 14 13 13 13 14 15 16 15 14 14 15 16 17 17 17 16 15 15 14 15 17 15 14 14 13 12 13 13 13 12 11 11 10 10 10 9 9 9 9 8 6 6 5 5 5 4 4 3 3 4 4 4 4 5 5 5 5 6
11 12 14 13 13 11 12 15 13 14 13 13 12 16 11 8 6 8 11 11 12 14 16 15 13 14 12 9 9 8 8 10 11 12 13 14 16 15 15 14 13 13 15 16 15 14 14 15 14 14 15 15 16 16 16 15 14 14 17 16 15 14 14 13 13 13 13 13 11 11 11 9 10 10 10 10 9 7 7 7 6 6 5 5 4 4 4 4 4 5 5 3 4 4 4 5 5
Wind_Direction
255 201 161 200 199 176 193 191 241 177 224 231 236 199 138 207 328 233 151 177 188 99 135 164 144 143 193 166 171 52 44 201 24 277 70 102 140 140 138 142 139 145 145 146 147 153 157 155 156 158 156 157 158 158 151 145 142 142 141 140 138 138 136 136 134 133 133 134 135 134 134 132 130 127 125 119 114 115 117 118 118 119 119 117 116 114 114 115 116 116 114 114 110 100 95 93 92
162 154 169 192 196 209 165 260 284 233 226 250 221 282 115 166 214 194 29 24 30 84 125 152 147 140 78 143 88 171 81 39 34 79 87 108 136 138 137 145 147 148 145 149 148 155 158 156 156 156 158 158 160 159 152 147 144 142 141 141 140 140 139 138 137 138 136 137 137 136 134 133 131 127 122 119 120 118 118 120 120 120 118 116 115 116 114 117 118 117 116 112 106 99 93 88 82
152 168 156 194 183 242 306 206 253 233 237 215 195 232 108 218 216 92 50 41 69 109 130 139 152 154 140 155 186 230 106 49 93 98 102 141 140 147 150 147 148 145 147 146 151 156 154 156 156 158 159 159 161 160 155 150 147 144 142 142 142 141 140 139 138 138 139 138 138 137 135 133 129 126 123 121 121 121 121 121 120 118 119 118 117 116 115 116 116 116 113 107 100 94 89 83 79
177 203 186 190 223 218 282 258 251 258 229 246 221 167 241 229 138 54 60 68 98 152 158 135 173 173 215 168 60 100 89 126 99 120 126 159 148 143 147 148 144 144 147 150 153 154 155 151 157 158 159 160 162 160 157 152 149 146 145 145 144 144 141 140 139 141 141 141 140 137 136 133 133 128 125 125 125 123 121 120 121 122 119 118 115 114 114 113 116 114 109 102 95 91 86 83 77
191 203 240 239 263 264 256 260 267 240 230 217 232 173 216 244 115 80 74 93 108 161 184 153 163 163 278 358 171 224 79 95 120 130 131 138 126 138 146 147 147 148 149 153 155 154 152 152 156 157 159 162 163 161 157 153 151 148 148 148 147 146 144 141 142 142 142 141 138 139 137 136 136 131 127 130 128 126 127 127 125 122 121 118 114 113 111 113 111 112 106 100 98 91 85 76 66
193 204 221 267 221 27 264 269 252 254 251 229 229 189 194 222 111 86 100 128 129 159 188 179 225 161 189 209 255 109 145 220 124 126 145 127 139 140 144 149 150 150 150 156 157 158 153 151 156 157 160 163 164 161 157 155 153 152 151 151 150 149 145 145 146 144 146 144 145 143 145 141 141 137 133 133 132 133 132 127 126 127 123 117 113 109 110 112 111 107 106 104 99 93 82 72 64
163 201 200 227 231 226 235 228 244 246 236 242 223 244 213 206 110 173 122 149 137 167 178 180 196 143 203 163 172 78 89 102 170 125 147 132 136 142 144 152 151 152 155 159 157 153 150 149 155 158 161 163 164 162 159 156 154 154 154 154 150 147 147 146 145 148 148 147 145 144 145 149 147 140 139 137 139 136 133 133 131 122 119 117 116 115 114 114 111 105 104 101 98 94 84 74 61
213 232 185 221 221 192 228 239 241 234 229 220 223 235 213 187 245 268 197 247 142 200 182 182 191 229 81 162 176 108 95 46 79 111 114 134 139 140 149 150 155 158 159 158 155 152 138 153 155 159 163 164 164 163 159 157 156 155 156 155 152 149 147 147 148 147 146 148 148 147 149 153 149 146 142 144 143 141 139 137 130 129 124 120 119 117 114 114 106 103 102 103 102 97 89 78 61
197 233 190 233 226 201 230 230 236 234 247 193 222 243 185 206 181 244 252 242 105 204 171 183 158 232 124 206 100 131 83 79 99 117 128 134 137 144 148 152 160 162 158 156 151 144 150 156 158 160 164 166 165 162 160 158 157 157 157 157 153 150 148 149 152 146 143 150 148 152 156 158 156 151 149 148 146 146 145 137 137 134 127 117 108 112 113 111 108 103 102 102 101 96 89 80 64
200 219 193 228 229 229 228 228 231 235 235 228 232 207 207 197 186 232 264 223 218 140 151 186 186 171 274 127 115 141 106 98 115 121 126 132 134 142 146 152 163 165 159 154 151 147 156 156 159 162 166 166 166 163 160 158 159 159 158 157 151 148 149 151 150 148 147 149 149 155 159 160 157 156 154 152 152 150 150 143 138 134 125 113 113 116 111 102 100 101 101 100 101 95 91 83 65
210 197 256 226 224 233 226 230 230 232 232 212 222 231 216 214 235 223 244 257 168 189 126 199 199 204 183 99 50 66 91 120 127 127 132 130 133 142 145 155 168 165 161 159 155 149 150 163 160 164 168 166 165 163 159 158 159 159 156 152 149 147 149 148 150 150 149 148 148 152 156 160 161 159 158 158 155 153 153 146 142 127 117 118 117 112 104 100 97 96 96 98 96 96 89 83 63
221 205 197 226 227 225 226 232 225 229 227 217 222 217 215 227 217 216 212 227 203 199 182 194 150 328 161 143 118 112 125 95 96 120 128 130 131 136 139 153 164 165 165 158 156 150 153 160 165 168 169 166 165 162 158 158 158 157 154 149 148 146 150 151 152 151 149 145 145 148 155 160 165 162 163 160 158 150 156 152 140 135 125 121 114 107 105 101 98 95 92 90 90 89 88 82 61
232 202 211 226 226 226 229 234 226 224 228 209 218 202 207 217 215 210 206 227 200 225 191 191 80 247 43 117 145 145 146 108 97 119 131 135 132 139 138 144 156 160 158 159 157 153 156 160 168 171 168 168 163 162 159 158 158 157 152 149 148 146 151 154 156 153 147 145 146 148 152 156 162 166 161 160 159 156 159 150 146 139 132 126 116 107 103 101 100 96 92 87 82 79 77 67 43
227 218 216 225 227 232 227 229 225 221 223 217 205 191 199 210 215 222 222 220 204 222 79 112 241 303 172 127 138 161 135 124 115 125 123 124 128 132 139 142 157 156 158 162 162 158 160 163 168 171 168 172 168 165 161 160 159 156 150 149 149 147 151 158 159 154 149 148 147 148 150 156 158 161 160 162 160 161 156 153 141 137 140 135 125 115 105 102 101 97 90 83 74 72 71 66 47
228 226 231 231 226 225 226 228 217 221 228 216 193 193 190 211 222 223 231 242 232 218 104 120 35 236 53 240 153 175 144 132 132 132 117 114 123 132 147 157 165 158 160 168 168 163 164 167 168 171 171 174 170 173 171 165 164 159 151 149 150 150 153 161 161 159 153 151 149 150 152 155 156 157 158 161 163 160 161 153 144 140 142 144 131 119 114 102 99 96 89 77 75 78 70 61 55
229 231 228 231 226 226 216 226 222 228 223 219 184 193 204 204 220 237 234 243 255 186 207 144 266 47 112 30 86 130 138 138 138 140 122 124 134 142 152 160 155 156 163 172 173 170 170 173 169 172 173 175 173 175 173 169 167 162 157 153 153 154 156 165 167 167 157 153 153 153 154 156 158 157 156 157 159 160 160 166 135 141 151 147 137 124 117 103 95 90 82 72 75 72 54 110 112
220 241 228 227 230 224 216 220 217 224 218 220 174 196 212 211 203 235 252 236 247 191 219 176 172 160 68 79 108 124 132 131 133 138 128 136 144 157 156 158 159 159 168 183 180 175 178 178 172 171 174 175 174 174 173 169 164 164 160 158 158 159 157 167 171 172 161 155 160 159 163 172 163 150 169 161 151 167 163 139 152 149 161 159 144 136 120 112 99 92 79 75 91 25 269 210 146
202 216 227 228 227 226 218 223 219 225 225 217 195 205 212 223 197 212 221 235 240 194 205 129 114 91 93 102 116 122 133 142 146 145 148 149 163 164 169 167 165 170 171 180 186 181 181 182 179 172 175 176 173 174 173 171 160 177 169 163 168 164 162 169 173 176 176 162 170 163 177 174 171 160 168 145 172 147 153 152 162 165 164 161 160 151 132 150 152 91 85 70 301 254 251 218 165
206 219 225 232 223 230 231 226 225 219 217 220 190 200 231 234 219 197 228 223 224 203 189 137 114 107 112 119 126 137 148 149 156 161 160 165 173 175 176 165 169 170 175 180 182 184 182 184 184 176 176 178 175 176 172 173 166 178 172 168 170 170 167 178 176 178 176 171 173 179 181 173 179 165 163 169 154 156 136 163 160 163 169 170 175 172 172 171 190 197 221 256 263 252 237 203 177
214 223 223 228 231 234 231 230 225 219 215 213 192 191 220 235 235 200 228 230 223 220 204 163 137 138 141 137 141 147 155 158 164 169 173 172 180 179 179 172 168 173 174 182 177 181 181 184 189 183 182 180 176 179 175 172 170 182 172 170 180 176 173 180 183 182 182 180 176 179 186 167 179 176 129 151 137 158 140 166 168 165 174 182 177 198 173 193 217 227 219 239 234 220 204 194 191
201 225 230 226 222 234 228 231 222 213 215 223 228 191 214 224 234 234 216 234 223 222 227 218 187 148 148 153 150 154 159 165 170 175 176 184 187 185 188 198 181 169 171 168 172 177 181 185 186 187 183 180 183 181 179 175 171 185 176 172 182 181 176 181 185 185 187 184 183 183 179 171 178 176 166 169 191 164 159 170 172 188 183 178 181 219 205 166 205 200 186 204 213 201 197 179 228
219 223 229 237 231 230 233 216 224 224 219 231 227 213 214 212 227 231 227 227 223 220 226 227 216 137 144 159 156 157 167 172 175 177 185 186 185 188 198 196 182 164 158 168 173 170 179 180 186 182 189 182 191 185 184 176 173 183 175 179 181 183 180 182 183 187 187 181 188 187 172 177 184 179 173 178 180 167 170 172 185 175 181 188 173 217 200 200 199 205 205 189 187 195 184 184 188
230 222 232 233 240 255 223 213 219 226 223 225 229 223 220 221 215 222 229 233 238 233 224 223 222 145 151 162 156 165 172 175 176 180 185 190 184 186 193 188 174 169 167 169 168 168 174 181 188 182 187 186 189 191 186 176 182 179 180 180 186 181 185 182 187 187 188 179 195 183 184 181 184 183 174 186 184 176 179 182 188 169 190 194 181 214 193 194 210 193 189 198 183 187 193 158 178
235 228 218 225 218 220 232 247 217 221 224 226 230 232 226 221 224 212 226 228 241 249 298 301 102 114 143 154 171 171 172 178 179 178 187 199 190 172 182 186 182 167 174 159 164 164 171 181 185 183 186 187 186 193 189 185 181 183 188 180 195 181 186 185 186 192 183 188 194 187 193 191 182 183 178 181 190 186 181 184 183 176 197 193 178 215 188 191 196 191 193 183 191 185 180 187 171
218 231 207 238 222 223 219 233 225 219 226 234 232 228 228 227 226 223 226 226 226 230 230 246 226 164 155 160 173 168 173 175 175 170 178 189 182 170 183 187 182 183 177 176 165 168 175 180 184 186 183 188 183 191 188 188 179 189 183 187 197 177 197 194 189 186 188 191 192 191 195 197 187 183 175 181 182 181 181 174 186 191 195 195 170 198 199 183 188 193 183 190 191 188 183 178 191
218 228 217 235 214 214 219 217 217 221 227 228 237 233 229 230 237 240 232 223 222 224 225 231 227 221 194 182 168 163 169 175 165 168 177 176 169 184 183 181 186 192 191 185 179 173 175 179 182 185 187 187 186 188 189 188 184 189 186 190 194 180 199 199 186 191 196 195 191 197 191 195 199 184 177 181 174 172 173 176 194 188 191 182 185 186 188 189 186 183 187 199 182 197 180 157 193
112 217 221 227 203 217 217 223 211 215 222 214 224 228 234 233 230 234 227 233 224 224 228 223 226 221 220 205 171 164 162 174 166 162 173 191 182 185 184 189 194 195 194 194 192 185 177 180 183 186 187 188 188 188 192 189 188 191 189 189 190 190 191 194 189 195 200 198 195 195 196 192 195 193 176 181 171 169 176 175 193 183 187 180 187 180 176 189 183 182 189 196 188 193 185 156 206
227 299 214 222 230 233 230 223 223 199 216 216 222 232 237 235 225 233 222 220 232 232 226 227 223 219 212 212 157 151 168 168 157 161 181 194 191 193 188 192 190 191 197 196 197 191 177 181 183 185 187 188 191 188 191 194 193 194 192 192 193 190 188 194 195 199 197 200 199 192 198 188 196 188 186 183 175 173 173 182 177 182 182 172 184 172 176 183 184 172 177 182 203 201 189 178 190
216 232 240 212 217 225 219 221 216 214 221 209 213 237 235 230 229 225 227 232 223 226 229 226 222 223 204 174 129 145 162 164 167 173 187 198 195 188 194 196 187 188 190 195 194 192 184 180 180 183 185 182 191 190 187 194 197 196 194 197 194 192 190 196 198 198 199 199 195 197 194 191 196 184 190 189 183 178 170 174 176 176 182 171 163 167 173 177 183 172 182 183 187 192 189 177 185
221 219 244 216 207 223 212 215 218 209 218 187 182 224 224 225 228 227 220 226 233 226 225 225 222 221 208 158 146 142 157 171 179 187 192 198 196 190 190 189 188 187 183 187 190 191 184 183 180 178 181 180 190 191 186 193 195 196 195 195 195 193 198 198 200 200 197 199 195 194 198 195 195 193 185 187 190 178 170 182 178 177 171 153 165 170 185 184 184 189 183 187 185 195 190 166 180
218 209 210 235 219 223 197 202 204 213 195 188 199 231 229 228 230 227 220 219 227 227 224 224 221 220 216 174 162 152 167 181 190 193 193 195 197 192 190 183 184 183 182 183 188 184 182 182 182 179 180 181 184 191 190 195 194 197 195 198 194 197 199 202 199 200 197 201 198 191 198 192 206 194 187 179 191 181 174 180 180 180 153 168 173 179 193 185 190 191 191 191 178 182 175 159 156
214 181 212 217 233 223 194 190 203 210 193 198 208 234 234 232 230 223 213 219 222 225 223 224 222 221 218 202 183 161 174 191 195 194 195 197 201 194 186 181 179 180 181 175 185 184 182 182 186 181 177 179 182 186 186 194 192 200 200 196 199 196 202 203 202 202 200 200 202 195 196 196 200 194 184 183 179 192 182 177 185 158 157 181 182 172 203 191 190 190 174 196 181 182 164 155 153
200 233 228 214 209 215 162 198 209 210 209 196 213 230 230 237 242 237 215 213 217 219 224 223 220 221 219 211 193 181 168 180 191 198 198 197 201 203 186 178 177 177 174 172 182 183 182 182 183 183 177 178 178 185 188 188 192 195 201 197 201 195 205 205 203 202 207 203 199 202 191 195 197 191 185 184 186 188 190 185 175 162 183 172 172 180 195 198 177 183 175 177 204 190 167 145 126
203 203 235 213 212 208 225 160 204 200 217 209 210 231 236 245 242 229 235 210 209 219 222 223 222 218 217 219 213 201 193 174 192 200 205 200 199 203 195 181 174 172 172 170 169 176 182 184 185 187 179 179 179 183 187 189 190 192 195 198 194 201 205 209 206 203 205 206 201 204 191 192 195 188 186 180 189 193 190 193 175 171 184 175 171 182 191 189 180 179 164 174 191 199 147 131 111
204 185 213 197 217 233 223 192 187 207 204 226 215 226 229 226 201 204 221 208 217 220 221 220 223 219 218 218 219 214 209 194 197 200 204 194 204 205 197 185 170 170 171 168 166 176 184 186 188 186 178 178 180 182 185 189 185 191 193 201 193 201 201 209 210 206 206 203 202 202 194 191 192 188 186 182 186 190 192 193 186 177 187 186 183 197 189 193 184 177 171 161 187 180 147 118 123
262 201 214 216 208 207 219 188 110 205 209 217 227 224 218 226 209 190 200 221 227 228 223 223 225 221 222 220 222 222 218 211 198 182 200 192 187 191 190 181 169 170 168 171 167 175 186 185 186 184 186 180 179 183 183 187 186 189 196 197 202 201 206 201 206 211 206 206 201 200 192 195 189 189 187 184 187 190 193 193 185 187 189 193 192 206 202 192 189 177 173 174 162 145 142 129 128
274 251 253 232 230 218 209 205 130 181 247 232 227 232 233 222 228 214 207 206 217 222 225 224 221 221 223 221 220 221 220 217 199 196 191 182 178 178 187 173 171 168 167 172 174 179 187 188 186 187 185 180 181 182 182 187 188 188 198 201 199 196 204 202 201 209 207 203 204 197 191 196 192 189 191 187 190 186 199 191 185 189 192 198 197 208 209 198 190 187 172 176 175 172 154 140 134
229 231 225 223 221 232 193 215 161 187 246 232 231 236 231 233 230 231 240 229 224 212 215 224 229 222 219 221 221 218 218 218 214 191 161 159 166 170 188 186 173 170 171 172 179 180 188 189 191 189 185 183 187 185 181 187 190 195 195 199 200 198 199 202 203 205 204 201 202 198 195 195 194 190 190 189 190 187 191 192 189 190 194 199 201 205 201 180 177 178 176 178 187 187 173 160 149
221 236 217 232 213 232 184 223 179 200 228 245 224 224 239 235 231 226 233 232 235 229 222 222 226 227 224 220 220 221 219 219 215 199 160 172 169 174 182 192 185 178 170 173 176 178 185 188 193 194 188 188 187 186 184 185 185 191 197 192 196 197 201 200 205 199 195 201 197 200 197 196 194 192 187 191 189 190 193 190 191 192 197 196 198 196 189 184 185 183 186 193 179 187 193 171 173
224 219 228 221 218 204 208 211 217 207 232 237 228 245 247 236 234 237 236 236 236 236 235 233 235 232 227 223 221 221 220 215 214 210 191 165 175 178 185 189 187 184 173 170 176 182 185 193 195 195 191 191 187 186 187 179 176 184 193 191 193 201 191 190 203 200 195 199 199 202 199 197 194 192 190 191 191 191 194 192 189 194 198 200 201 200 188 195 186 192 194 195 197 183 192 181 185
214 239 235 233 224 214 252 66 181 214 232 248 270 261 250 237 233 232 231 232 237 231 230 231 233 235 238 249 244 228 226 225 223 218 203 185 169 177 184 187 187 187 179 174 180 186 190 192 195 196 193 193 191 184 185 175 170 180 186 190 188 192 196 189 199 201 197 196 201 197 202 197 193 193 191 194 193 191 196 196 194 193 200 200 205 203 195 200 197 195 192 195 196 199 191 180 192
215 215 244 254 263 243 237 260 248 227 232 214 223 244 243 229 233 236 231 221 225 226 227 224 229 233 232 235 238 243 242 238 238 240 229 202 195 178 177 177 184 185 181 180 183 188 188 187 191 194 197 195 192 186 183 177 170 180 182 185 186 188 193 195 197 196 191 196 203 194 199 197 195 191 192 195 196 193 197 199 199 199 201 204 207 207 207 198 206 205 195 199 202 207 217 180 193
241 205 202 231 245 245 248 238 226 237 240 209 199 235 247 225 227 225 227 232 225 220 223 225 223 228 230 230 230 231 231 230 236 244 245 231 212 203 194 181 179 186 183 177 181 185 185 185 190 194 198 197 194 187 184 179 172 184 187 187 184 185 189 194 194 197 199 197 199 194 196 196 195 191 195 196 197 196 199 202 202 208 207 207 206 208 208 206 210 214 203 206 208 203 210 211 200
238 81 146 234 229 234 233 236 235 250 242 97 186 234 256 251 230 220 221 223 228 226 221 221 222 222 226 227 227 228 230 228 227 231 239 240 234 217 210 202 196 192 178 177 176 182 184 187 191 196 199 198 197 191 188 187 178 182 186 189 185 184 189 183 189 192 194 193 194 194 193 192 198 196 195 200 199 198 202 204 207 210 213 210 205 206 176 162 233 223 210 209 210 214 205 213 203
15 85 219 227 235 230 232 231 233 239 245 239 211 219 246 245 239 217 213 224 226 226 225 221 219 221 221 225 227 226 228 230 226 228 229 234 235 235 226 215 213 201 187 187 178 184 186 187 193 200 202 203 200 196 193 192 188 180 182 183 184 185 181 177 177 192 190 190 197 190 194 190 196 200 200 201 205 206 203 207 209 212 213 216 212 207 185 166 222 227 210 203 204 207 210 212 209
203 213 225 270 229 232 230 230 234 230 232 238 228 210 236 243 230 229 217 235 229 224 226 228 226 222 221 222 225 228 226 229 230 231 234 236 239 237 232 227 219 204 196 190 191 179 182 186 196 198 202 204 205 200 198 196 195 189 182 183 183 180 179 175 181 185 197 191 200 191 193 193 191 194 203 205 208 209 208 210 212 215 214 219 222 213 199 146 202 244 233 209 202 200 208 215 213
40 177 209 206 211 216 211 239 239 236 232 235 231 228 228 250 227 223 214 216 229 234 229 228 228 227 225 225 224 227 227 225 227 229 233 238 239 236 229 228 224 207 190 187 190 184 181 188 193 201 208 207 200 200 199 197 197 197 190 184 184 178 176 174 180 188 193 196 198 195 193 190 194 191 194 204 210 214 212 213 215 214 216 219 223 222 208 185 173 223 250 241 216 200 201 214 211
201 204 215 196 204 208 219 217 222 237 242 235 228 233 226 242 233 236 229 225 228 232 234 228 222 221 222 223 223 224 226 227 227 228 231 234 236 233 229 233 230 213 195 189 188 185 184 187 191 198 205 206 204 202 200 201 200 201 197 184 185 183 177 177 184 187 190 195 200 196 193 195 195 192 198 202 205 210 212 215 215 218 218 220 224 228 228 215 190 188 213 236 226 211 203 208 211
210 213 211 211 203 205 223 205 214 222 237 235 229 220 233 233 245 251 240 233 232 234 233 220 215 215 215 222 224 226 229 230 230 232 230 231 231 225 220 228 229 216 200 194 189 189 190 192 195 197 199 203 206 202 202 204 203 201 196 187 191 191 180 181 182 186 190 196 199 198 194 193 189 202 199 205 204 207 209 213 214 218 220 221 229 232 234 219 229 217 180 200 228 223 212 203 209
209 213 203 212 217 219 226 224 226 238 232 234 222 229 243 258 248 235 248 250 247 236 220 241 253 250 245 240 230 223 225 229 230 230 232 231 226 218 218 221 222 214 207 200 195 194 192 192 193 197 199 199 202 205 205 206 205 200 195 192 192 198 196 185 182 184 181 192 194 197 197 192 195 204 199 205 204 206 210 211 217 221 224 224 227 236 240 238 232 238 258 200 202 222 225 213 210
213 221 221 224 237 232 234 228 228 226 243 209 198 221 234 228 224 231 233 236 240 240 247 252 247 242 238 242 245 244 232 227 226 228 227 228 228 221 215 217 219 211 209 204 196 195 193 194 195 198 200 197 200 203 206 208 207 198 195 194 195 200 200 194 182 181 179 180 197 198 195 197 205 204 202 198 194 195 208 209 207 214 221 229 232 240 247 245 234 241 241 230 174 198 225 221 221
219 220 231 241 233 240 258 258 270 300 275 237 207 232 235 232 247 128 226 218 223 232 237 236 237 234 237 236 236 238 237 226 222 223 225 228 230 226 214 215 215 212 210 204 198 191 193 195 195 198 198 195 196 200 206 209 209 199 194 193 198 201 202 197 184 181 180 180 190 200 198 200 204 202 197 189 173 195 203 206 202 212 217 220 233 243 251 254 246 246 246 233 136 136 202 209 223
197 207 219 226 245 263 261 259 256 258 285 255 236 229 238 255 264 250 238 227 221 215 221 225 230 230 231 234 235 233 235 235 227 225 223 222 224 223 217 216 212 214 214 204 196 192 192 193 195 198 199 196 194 197 204 207 208 204 197 198 200 199 198 198 187 178 177 180 192 199 197 199 201 204 193 182 171 196 200 200 195 196 200 214 228 239 258 274 289 263 253 202 130 114 104 171 219
249 223 229 244 247 267 254 257 254 240 244 243 238 247 252 250 260 227 229 229 232 235 230 223 220 222 222 223 225 229 231 231 232 232 229 226 223 221 218 215 215 214 218 210 200 194 194 196 195 195 194 194 193 194 201 205 206 206 201 201 200 199 196 197 197 180 180 181 186 199 194 194 196 196 181 175 175 189 194 186 198 189 201 211 214 214 218 213 209 219 204 185 143 137 139 141 159
242 248 36 233 213 223 219 230 236 245 241 250 238 240 246 242 243 219 202 225 223 226 230 233 230 219 219 220 223 227 228 230 233 232 228 226 224 221 221 219 217 218 219 218 207 198 196 198 198 196 194 193 192 193 197 202 204 203 202 199 198 197 196 195 196 188 185 185 181 189 186 193 191 183 176 169 180 182 188 188 194 188 193 192 197 202 206 200 218 200 182 151 143 149 147 148 152
234 251 247 241 263 248 245 218 243 223 240 239 245 240 244 229 241 245 248 253 239 218 220 228 231 235 239 240 237 236 236 233 230 231 234 229 222 218 216 217 218 216 217 217 214 207 203 199 197 198 197 194 193 192 195 198 202 203 202 200 197 193 192 191 191 190 185 191 182 181 190 189 187 182 174 170 178 181 189 188 195 182 177 177 182 183 183 192 199 198 181 183 166 164 164 159 158
211 224 234 229 232 251 265 248 233 235 244 244 251 246 241 238 236 236 239 241 241 248 249 238 246 243 236 236 235 237 240 239 235 232 231 231 225 219 217 214 218 219 216 215 213 209 204 200 199 196 194 194 194 194 193 194 197 199 202 196 190 189 185 186 182 185 187 187 172 173 186 186 177 179 176 172 182 187 179 186 184 173 179 178 174 167 176 184 190 171 172 160 156 162 153 150 146
228 225 234 226 228 223 227 240 224 234 240 242 243 252 254 250 233 239 239 236 237 230 242 252 245 243 238 234 239 243 244 245 245 241 237 232 228 223 218 213 215 217 214 212 212 209 203 199 196 194 195 195 193 192 192 190 193 196 198 196 189 186 183 181 178 181 190 183 170 159 174 164 176 179 179 179 189 182 173 179 175 181 173 164 162 164 177 180 174 161 156 151 151 151 152 139 148